Weather History for KEWB - February, 2014

Change the Weather History Date:

Sunday, February 16, 2014

  Actual Average Record
Temperature  
Mean Temperature 26 °F -  
Max Temperature 32 °F 40 °F 57 °F (2006)
Min Temperature 21 °F 24 °F -2 °F (2015)
Degree Days  
Heating Degree Days 38    
Moisture  
Dew Point 16 °F    
Average Humidity 64    
Maximum Humidity 88    
Minimum Humidity 43    
Precipitation  
Precipitation 0.00 in - - ()
Sea Level Pressure  
Sea Level Pressure 29.69 in    
Wind  
Wind Speed 12 mph (WNW)    
Max Wind Speed 20 mph    
Max Gust Speed 33 mph    
Visibility 8 miles    
Events Snow    
Averages and records for this station are not official NWS values.
T = Trace of Precipitation, MM = Missing Value Source: NWS Daily Summary

Daily Weather History Graph

Daily Weather History Graph

Search for Another Location

Airport or City:

Trip Planner

Search our weather history database for the weather conditions in past years. The results will help you decide how hot, cold, wet, or windy it might be!

Date:

Astronomy

Feb. 16, 2014 Rise Set
Actual Time 6:37 AM EST 5:18 PM EST
Civil Twilight 6:09 AM EST 5:46 PM EST
Nautical Twilight 5:37 AM EST 6:19 PM EST
Astronomical Twilight 5:04 AM EST 6:51 PM EST
Moon 7:14 PM EST (2/16) 7:04 AM EST (2/16)
Length of Visible Light 11h 37m
Length of Day
10h 40m
Full, 97% of the Moon is Illuminated
Feb 16
Full
Feb 22
Last Quarter
Mar 1
New
Mar 8
First Quarter
Mar 16
Full

Hourly Weather History & Observations

Time (EST) Temp. Windchill Dew Point Humidity Pressure Visibility Wind Dir Wind Speed Gust Speed Precip Events Conditions
12:33 AM 30.0 °F 20.5 °F 27.0 °F 88% 29.41 in 2.0 mi NW 11.5 mph 25.3 mph 0.00 in Snow Light Snow
12:53 AM 30.0 °F 20.5 °F 27.0 °F 88% 29.42 in 2.5 mi NW 11.5 mph 27.6 mph 0.00 in Snow Light Snow
12:55 AM 30.0 °F 19.1 °F 27.0 °F 88% 29.41 in 3.0 mi NW 15.0 mph 27.6 mph 0.00 in Snow Light Snow
1:02 AM 30.0 °F 21.1 °F 27.0 °F 88% 29.42 in 3.0 mi NW 10.4 mph 26.5 mph 0.00 in Snow Light Snow
1:09 AM 30.0 °F 19.1 °F 27.0 °F 88% 29.42 in 3.0 mi NW 15.0 mph 27.6 mph 0.00 in Snow Light Snow
1:26 AM 30.0 °F 19.5 °F 27.0 °F 88% 29.44 in 2.0 mi NW 13.8 mph 25.3 mph 0.00 in Snow Light Snow
1:42 AM 30.0 °F 19.1 °F 26.1 °F 85% 29.45 in 3.0 mi NW 15.0 mph 29.9 mph 0.00 in Snow Light Snow
1:53 AM 30.0 °F 20.5 °F 27.0 °F 88% 29.46 in 6.0 mi NW 11.5 mph 27.6 mph 0.00 in   Overcast
2:53 AM 28.9 °F 19.2 °F 21.9 °F 75% 29.52 in 5.0 mi NW 11.5 mph 33.4 mph 0.00 in   Mostly Cloudy
3:53 AM 27.0 °F 18.0 °F 18.0 °F 69% 29.57 in 9.0 mi NW 9.2 mph 31.1 mph 0.00 in   Clear
4:53 AM 24.1 °F 11.5 °F 14.0 °F 65% 29.62 in 10.0 mi WNW 15.0 mph 26.5 mph 0.00 in   Clear
5:53 AM 23.0 °F 12.4 °F 12.9 °F 65% 29.66 in 10.0 mi WNW 10.4 mph 21.9 mph N/A   Clear
6:53 AM 21.9 °F 11.0 °F 12.9 °F 68% 29.70 in 10.0 mi WNW 10.4 mph - N/A   Clear
7:53 AM 23.0 °F 11.7 °F 12.0 °F 63% 29.73 in 10.0 mi WNW 11.5 mph - N/A   Clear
8:53 AM 25.0 °F 13.6 °F 12.9 °F 60% 29.75 in 10.0 mi West 12.7 mph 25.3 mph N/A   Clear
9:53 AM 26.1 °F 13.6 °F 14.0 °F 60% 29.76 in 7.0 mi WNW 16.1 mph 28.8 mph 0.00 in   Clear
10:53 AM 27.0 °F 14.7 °F 12.9 °F 56% 29.78 in 10.0 mi WNW 16.1 mph 24.2 mph 0.00 in   Clear
11:53 AM 28.9 °F 16.1 °F 12.9 °F 51% 29.78 in 10.0 mi West 19.6 mph 28.8 mph N/A   Clear
12:53 PM 30.0 °F 17.5 °F 12.0 °F 47% 29.79 in 10.0 mi West 19.6 mph 27.6 mph N/A   Clear
1:53 PM 30.9 °F 19.8 °F 12.9 °F 47% 29.79 in 10.0 mi West 16.1 mph 21.9 mph N/A   Clear
2:53 PM 32.0 °F 22.5 °F 12.0 °F 44% 29.80 in 10.0 mi West 12.7 mph - N/A   Clear
3:53 PM 30.9 °F 20.7 °F 10.9 °F 43% 29.82 in 10.0 mi WNW 13.8 mph - N/A   Clear
4:53 PM 28.9 °F 19.8 °F 10.0 °F 45% 29.84 in 10.0 mi West 10.4 mph - N/A   Clear
5:53 PM 28.0 °F 20.8 °F 10.9 °F 49% 29.86 in 10.0 mi West 6.9 mph - N/A   Overcast
6:53 PM 28.0 °F 19.3 °F 10.9 °F 49% 29.88 in 10.0 mi WNW 9.2 mph - N/A   Mostly Cloudy
7:53 PM 27.0 °F 18.7 °F 10.0 °F 49% 29.89 in 10.0 mi West 8.1 mph - N/A   Overcast
8:53 PM 27.0 °F 18.7 °F 10.0 °F 49% 29.91 in 10.0 mi West 8.1 mph - N/A   Overcast
9:53 PM 26.1 °F 15.6 °F 10.0 °F 51% 29.94 in 10.0 mi West 11.5 mph - N/A   Overcast
10:53 PM 25.0 °F 14.8 °F 10.0 °F 53% 29.95 in 10.0 mi WNW 10.4 mph - N/A   Overcast
11:53 PM 24.1 °F 13.7 °F 8.1 °F 51% 29.96 in 10.0 mi WNW 10.4 mph 17.3 mph N/A   Overcast